sat.trackr.live / text

‹ back to catalog

HJS-8A

NORAD 68687 · 2026-078A

PAYLOAD ACTIVE UNKNOWN

§ Identity

Operator
Country
PRC
Launch date
2026-04-11
Launch site
SCSLA
Launch vehicle
Mass (kg)
RCS (m²)

External: N2YO · Heavens-Above · Gunter

§ Orbital elements

Epoch: 2026-09-20T03:26:59.114400Z

Period
108.73 min
Inclination
86.4958°
Eccentricity
0.0002229
Mean motion
13.24402192 rev/d
Perigee alt
1,166.3 km
Apogee alt
1,169.6 km
Semi-major
7,546.1 km
B*
-1.7391e-4
RAAN
250.4050°
Arg perigee
82.7886°
Mean anomaly
277.3502°
Rev number
2,154

§ Raw data

HJS-8A1 68687U 26078A   26263.14373975 -.00000060  00000+0 -17391-3 0  99972 68687  86.4958 250.4050 0002229  82.7886 277.3502 13.24402192 21543

JSON: /api/v1/satellites/68687 · /tle

For live sub-satellite position, see the globe view (requires WebGL).

§ Visibility from observer

Set your observer location to see the next 7 days of passes ≥ 10°. The values pass through the URL so the page stays shareable.

No JS? Fill the form by hand. The geolocation button needs JavaScript.